TimeCDT,TemperatureF,Dew PointF,Humidity,Sea Level PressureIn,VisibilityMPH,Wind Direction,Wind SpeedMPH,Gust SpeedMPH,PrecipitationIn,Events,Conditions,WindDirDegrees,DateUTC
12:54 AM,78.1,73.9,87,30.02,10.0,Calm,Calm,-,N/A,,Clear,0,2013-08-05 05:54:00
1:54 AM,77.0,73.9,90,30.01,10.0,Calm,Calm,-,N/A,,Clear,0,2013-08-05 06:54:00
2:54 AM,77.0,73.9,90,30.01,8.0,SSE,5.8,-,N/A,,Clear,150,2013-08-05 07:54:00
3:54 AM,75.9,73.9,94,30.01,7.0,Calm,Calm,-,N/A,,Clear,0,2013-08-05 08:54:00
4:54 AM,75.9,73.9,94,30.02,8.0,Calm,Calm,-,N/A,,Clear,0,2013-08-05 09:54:00
5:12 AM,75.2,73.4,94,30.03,8.0,ESE,3.5,-,N/A,Thunderstorm,Thunderstorm,120,2013-08-05 10:12:00
5:37 AM,75.2,73.4,94,30.04,8.0,Calm,Calm,-,N/A,,Clear,0,2013-08-05 10:37:00
5:54 AM,75.9,73.9,94,30.03,7.0,Calm,Calm,-,0.01,,Clear,0,2013-08-05 10:54:00
6:54 AM,77.0,73.9,90,30.03,6.0,SE,3.5,-,N/A,,Clear,140,2013-08-05 11:54:00
7:54 AM,79.0,75.0,88,30.04,6.0,SSW,3.5,-,N/A,,Clear,200,2013-08-05 12:54:00
8:54 AM,82.9,75.0,77,30.04,9.0,South,3.5,-,N/A,,Clear,190,2013-08-05 13:54:00
9:54 AM,84.9,75.0,72,30.04,10.0,Calm,Calm,-,N/A,,Partly Cloudy,0,2013-08-05 14:54:00
10:54 AM,89.1,75.0,63,30.04,10.0,Variable,4.6,-,N/A,,Partly Cloudy,0,2013-08-05 15:54:00
11:54 AM,91.9,73.9,55,30.03,10.0,West,6.9,-,N/A,,Scattered Clouds,260,2013-08-05 16:54:00
12:54 PM,93.0,72.0,50,30.01,10.0,SW,9.2,-,N/A,,Mostly Cloudy,230,2013-08-05 17:54:00
1:29 PM,95.0,71.6,47,30.01,10.0,Variable,5.8,-,N/A,Thunderstorm,Thunderstorm,0,2013-08-05 18:29:00
1:54 PM,82.0,73.0,74,29.99,6.0,NW,11.5,19.6,0.04,Rain-Thunderstorm,Thunderstorms and Rain,310,2013-08-05 18:54:00
2:15 PM,87.8,77.0,70,29.99,10.0,Calm,Calm,-,0.06,,Mostly Cloudy,0,2013-08-05 19:15:00
2:34 PM,91.4,75.2,59,29.98,10.0,NW,3.5,-,0.06,Thunderstorm,Thunderstorm,310,2013-08-05 19:34:00
2:54 PM,87.1,75.9,69,29.96,10.0,SSE,4.6,-,0.06,Thunderstorm,Thunderstorm,150,2013-08-05 19:54:00
3:04 PM,89.6,75.2,62,29.98,10.0,ESE,8.1,-,N/A,,Mostly Cloudy,120,2013-08-05 20:04:00
3:54 PM,91.9,73.9,55,29.95,10.0,Variable,3.5,-,N/A,,Mostly Cloudy,0,2013-08-05 20:54:00
4:32 PM,95.0,71.6,47,29.96,10.0,WNW,3.5,-,N/A,Thunderstorm,Thunderstorm,300,2013-08-05 21:32:00
4:54 PM,93.9,71.1,47,29.94,10.0,NW,4.6,-,N/A,,Scattered Clouds,320,2013-08-05 21:54:00
5:54 PM,91.0,75.0,59,29.94,10.0,ESE,6.9,-,N/A,,Mostly Cloudy,120,2013-08-05 22:54:00
6:54 PM,87.1,75.9,69,29.95,10.0,SE,8.1,-,N/A,,Partly Cloudy,130,2013-08-05 23:54:00
7:54 PM,82.9,73.9,74,29.97,10.0,SE,5.8,-,N/A,,Clear,130,2013-08-06 00:54:00
8:54 PM,82.0,75.0,79,29.99,10.0,SE,3.5,-,0.00,Rain,Light Rain,140,2013-08-06 01:54:00
9:39 PM,78.8,77.0,94,29.99,5.0,East,3.5,-,0.03,Rain-Thunderstorm,Thunderstorms and Rain,80,2013-08-06 02:39:00
9:54 PM,79.0,77.0,94,29.96,5.0,SSE,6.9,-,0.05,Rain-Thunderstorm,Thunderstorms and Rain,150,2013-08-06 02:54:00
10:42 PM,78.8,77.0,94,29.97,7.0,SE,4.6,-,0.04,Rain,Light Rain,140,2013-08-06 03:42:00
10:54 PM,78.1,75.9,93,29.95,7.0,SSE,5.8,-,0.04,,Partly Cloudy,150,2013-08-06 03:54:00
11:54 PM,78.1,75.9,93,29.96,7.0,Calm,Calm,-,N/A,,Clear,0,2013-08-06 04:54:00